Santa Barbara, CA

9:21 AM PST on December 10, 2016 (GMT -0800)
Santa Barbara Municipal

Weather History for KSBA - October, 2013

Change the Weather History Date:

Thursday, October 10, 2013

  Actual Average Record
Temperature  
Mean Temperature 55 °F 62 °F  
Max Temperature 67 °F 72 °F 93 °F (1969)
Min Temperature 42 °F 52 °F 42 °F (1953)
Degree Days  
Heating Degree Days 10 3  
Month to date heating degree days 34 29  
Since 1 July heating degree days 78 124  
Cooling Degree Days 0 1  
Month to date cooling degree days 2 10  
Year to date cooling degree days 283 181  
Growing Degree Days 6 (Base 50)    
Moisture  
Dew Point 46 °F    
Average Humidity 72    
Maximum Humidity 89    
Minimum Humidity 55    
Precipitation  
Precipitation 0.00 in 0.03 in 0.21 in (1975)
Month to date precipitation 0.03 0.19  
Year to date precipitation 3.45 12.65  
Since 1 July precipitation 0.10  
Sea Level Pressure  
Sea Level Pressure 29.94 in    
Wind  
Wind Speed 3 mph (South)    
Max Wind Speed 12 mph    
Max Gust Speed 15 mph    
Visibility 10 miles    
Events      
T = Trace of Precipitation, MM = Missing Value Source: NWS Daily Summary

Daily Weather History Graph

Daily Weather History Graph

Search for Another Location

Airport or City:

Trip Planner

Search our weather history database for the weather conditions in past years. The results will help you decide how hot, cold, wet, or windy it might be!

Date:

Astronomy

Oct. 10, 2013 Rise Set
Actual Time 7:01 AM PDT 6:30 PM PDT
Civil Twilight 6:35 AM PDT 6:56 PM PDT
Nautical Twilight 6:06 AM PDT 7:25 PM PDT
Astronomical Twilight 5:37 AM PDT 7:54 PM PDT
Moon 12:47 PM PDT 11:23 PM PDT
Length of Visible Light 12h 20m
Length of Day
11h 29m
Waxing Crescent, 37% of the Moon is Illuminated
Oct 10
Waxing Crescent
Oct 11
First Quarter
Oct 18
Full
Oct 26
Last Quarter
Nov 3
New

Hourly Weather History & Observations

Time (PDT) Temp. Dew Point Humidity Pressure Visibility Wind Dir Wind Speed Gust Speed Precip Events Conditions
12:53 AM 48.0 °F 41.0 °F 77% 29.79 in 10.0 mi Calm Calm - N/A   Clear
1:53 AM 46.9 °F 39.9 °F 77% 29.81 in 10.0 mi Calm Calm - N/A   Clear
2:53 AM 45.0 °F 39.0 °F 80% 29.82 in 10.0 mi Calm Calm - N/A   Clear
3:53 AM 46.0 °F 39.0 °F 76% 29.83 in 10.0 mi Calm Calm - N/A   Clear
4:53 AM 46.0 °F 39.0 °F 76% 29.84 in 10.0 mi Calm Calm - N/A   Clear
5:53 AM 45.0 °F 39.0 °F 80% 29.87 in 10.0 mi Calm Calm - N/A   Clear
6:53 AM 46.9 °F 39.9 °F 77% 29.90 in 10.0 mi Calm Calm - N/A   Clear
7:53 AM 48.9 °F 41.0 °F 74% 29.92 in 9.0 mi Calm Calm - N/A   Clear
8:53 AM 60.1 °F 45.0 °F 57% 29.95 in 10.0 mi East 3.5 mph - N/A   Clear
9:53 AM 62.1 °F 46.9 °F 58% 29.97 in 10.0 mi ESE 6.9 mph - N/A   Clear
10:53 AM 63.0 °F 48.9 °F 60% 29.98 in 10.0 mi SSE 8.1 mph - N/A   Clear
11:53 AM 64.0 °F 50.0 °F 60% 29.99 in 10.0 mi SE 8.1 mph - N/A   Clear
12:53 PM 66.0 °F 52.0 °F 60% 29.98 in 10.0 mi SSE 8.1 mph - N/A   Clear
1:53 PM 66.0 °F 52.0 °F 60% 29.97 in 10.0 mi SSE 9.2 mph - N/A   Scattered Clouds
2:53 PM 66.0 °F 52.0 °F 60% 29.98 in 10.0 mi SSE 8.1 mph - N/A   Scattered Clouds
3:53 PM 64.0 °F 51.1 °F 63% 29.98 in 10.0 mi Variable 3.5 mph - N/A   Scattered Clouds
4:53 PM 64.0 °F 52.0 °F 65% 29.98 in 10.0 mi West 4.6 mph - N/A   Scattered Clouds
5:53 PM 62.1 °F 51.1 °F 67% 29.98 in 9.0 mi WSW 3.5 mph - N/A   Clear
6:53 PM 57.9 °F 50.0 °F 75% 29.98 in 10.0 mi West 3.5 mph - N/A   Clear
7:53 PM 57.9 °F 51.1 °F 78% 29.99 in 9.0 mi West 3.5 mph - N/A   Clear
8:53 PM 55.0 °F 48.9 °F 80% 30.00 in 9.0 mi Calm Calm - N/A   Clear
9:53 PM 52.0 °F 46.9 °F 83% 30.01 in 10.0 mi Calm Calm - N/A   Clear
10:53 PM 52.0 °F 48.0 °F 86% 30.01 in 9.0 mi Calm Calm - N/A   Clear
11:53 PM 48.0 °F 44.1 °F 86% 30.01 in 10.0 mi Calm Calm - N/A   Clear